| time (UTC) | temp C | wind direction | speed KPH | gust KPH | rain 1hr cm | rain 24hr cm | rain mn cm | humidity % | barometer mb |
| 20260506153616 | 27 | 229 | 1.6 | 1.6 | 0.00 | 0.00 | 0.00 | 78 | 1011.0 |
| 20260506153114 | 27 | 229 | 0.0 | 1.6 | 0.00 | 0.00 | 0.00 | 79 | 1011.0 |
| 20260506152611 | 27 | 229 | 0.0 | 1.6 | 0.00 | 0.00 | 0.00 | 79 | 1011.0 |
| 20260506152109 | 27 | 229 | 0.0 | 0.0 | 0.00 | 0.00 | 0.00 | 78 | 1010.8 |
| 20260506151607 | 27 | 229 | 0.0 | 0.0 | 0.00 | 0.00 | 0.00 | 79 | 1010.7 |
| 20260506151103 | 27 | 229 | 1.6 | 1.6 | 0.00 | 0.00 | 0.00 | 79 | 1010.6 |
| 20260506150600 | 27 | 207 | 0.0 | 1.6 | 0.00 | 0.00 | 0.00 | 79 | 1010.7 |
| 20260506150057 | 27 | 115 | 0.0 | 3.2 | 0.00 | 0.00 | 0.00 | 79 | 1010.4 |
| 20260506145554 | 27 | 209 | 0.0 | 0.0 | 0.00 | 0.00 | 0.00 | 82 | 1010.6 |
| 20260506145051 | 26 | 227 | 0.0 | 1.6 | 0.00 | 0.00 | 0.00 | 82 | 1010.5 |
| 20260506144548 | 26 | 229 | 0.0 | 1.6 | 0.00 | 0.00 | 0.00 | 82 | 1010.3 |
| 20260506144045 | 26 | 230 | 0.0 | 3.2 | 0.00 | 0.00 | 0.00 | 83 | 1010.4 |
| 20260506143543 | 26 | 146 | 1.6 | 1.6 | 0.00 | 0.00 | 0.00 | 83 | 1010.3 |
| 20260506143041 | 26 | 144 | 0.0 | 0.0 | 0.00 | 0.00 | 0.00 | 84 | 1010.2 |
| 20260506142538 | 26 | 187 | 0.0 | 0.0 | 0.00 | 0.00 | 0.00 | 84 | 1010.2 |
| 20260506142036 | 26 | 187 | 0.0 | 0.0 | 0.00 | 0.00 | 0.00 | 83 | 1010.2 |
| 20260506141534 | 26 | 162 | 1.6 | 1.6 | 0.00 | 0.00 | 0.00 | 83 | 1010.2 |
| 20260506141032 | 26 | 201 | 0.0 | 0.0 | 0.00 | 0.00 | 0.00 | 84 | 1010.1 |
| 20260506140529 | 26 | 200 | 0.0 | 0.0 | 0.00 | 0.00 | 0.00 | 85 | 1010.3 |
| 20260506140026 | 26 | 202 | 0.0 | 1.6 | 0.00 | 0.00 | 0.00 | 86 | 1010.3 |
| 20260506135523 | 25 | 200 | 0.0 | 0.0 | 0.00 | 0.00 | 0.00 | 87 | 1010.4 |
| 20260506135019 | 25 | 199 | 0.0 | 0.0 | 0.00 | 0.00 | 0.00 | 87 | 1010.2 |
| 20260506134515 | 25 | 51 | 0.0 | 1.6 | 0.00 | 0.00 | 0.00 | 88 | 1010.5 |
| 20260506134012 | 25 | 51 | 1.6 | 1.6 | 0.00 | 0.00 | 0.00 | 88 | 1010.5 |
| 20260506133509 | 25 | 52 | 1.6 | 4.8 | 0.00 | 0.00 | 0.00 | 88 | 1010.5 |
| 20260506133006 | 25 | 205 | 0.0 | 1.6 | 0.00 | 0.00 | 0.00 | 88 | 1010.5 |
| 20260506132503 | 25 | 205 | 1.6 | 1.6 | 0.00 | 0.00 | 0.00 | 89 | 1010.6 |
| 20260506132000 | 25 | 205 | 0.0 | 0.0 | 0.00 | 0.00 | 0.00 | 89 | 1010.6 |
| 20260506131457 | 25 | 205 | 0.0 | 1.6 | 0.00 | 0.00 | 0.00 | 89 | 1010.6 |
| 20260506130954 | 25 | 205 | 0.0 | 0.0 | 0.00 | 0.00 | 0.00 | 90 | 1010.7 |
| 20260506130450 | 25 | 204 | 0.0 | 0.0 | 0.00 | 0.00 | 0.00 | 90 | 1010.4 |
| 20260506125948 | 25 | 204 | 0.0 | 0.0 | 0.00 | 0.00 | 0.00 | 90 | 1010.4 |
| 20260506125446 | 25 | 204 | 0.0 | 1.6 | 0.00 | 0.00 | 0.00 | 91 | 1010.5 |
| 20260506124944 | 24 | 204 | 0.0 | 0.0 | 0.00 | 0.00 | 0.00 | 91 | 1010.4 |
| 20260506124441 | 24 | 204 | 0.0 | 0.0 | 0.00 | 0.00 | 0.00 | 91 | 1010.2 |
| 20260506123939 | 24 | 204 | 0.0 | 0.0 | 0.00 | 0.00 | 0.00 | 92 | 1010.3 |
| 20260506123437 | 24 | 204 | 0.0 | 0.0 | 0.00 | 0.00 | 0.00 | 92 | 1010.3 |
| 20260506122934 | 24 | 204 | 0.0 | 0.0 | 0.00 | 0.00 | 0.00 | 92 | 1010.0 |
| 20260506122431 | 23 | 204 | 0.0 | 0.0 | 0.00 | 0.00 | 0.00 | 92 | 1010.1 |
| 20260506121929 | 23 | 204 | 0.0 | 0.0 | 0.00 | 0.00 | 0.00 | 92 | 1010.3 |
| 20260506121426 | 23 | 204 | 0.0 | 0.0 | 0.00 | 0.00 | 0.00 | 92 | 1010.0 |
| 20260506120923 | 23 | 204 | 0.0 | 0.0 | 0.00 | 0.00 | 0.00 | 93 | 1010.2 |
| 20260506120420 | 23 | 204 | 0.0 | 0.0 | 0.00 | 0.00 | 0.00 | 93 | 1010.2 |
| 20260506115917 | 23 | 204 | 0.0 | 0.0 | 0.00 | 0.00 | 0.00 | 93 | 1009.9 |
| 20260506115415 | 23 | 204 | 0.0 | 0.0 | 0.00 | 0.00 | 0.00 | 93 | 1009.9 |
| 20260506114914 | 23 | 204 | 0.0 | 0.0 | 0.00 | 0.00 | 0.00 | 93 | 1009.8 |
| 20260506114411 | 23 | 204 | 0.0 | 0.0 | 0.00 | 0.00 | 0.00 | 93 | 1009.8 |
| 20260506113910 | 23 | 204 | 0.0 | 0.0 | 0.00 | 0.00 | 0.00 | 93 | 1009.8 |
| 20260506113407 | 23 | 204 | 0.0 | 0.0 | 0.00 | 0.00 | 0.00 | 93 | 1009.9 |
| 20260506112903 | 23 | 204 | 0.0 | 0.0 | 0.00 | 0.00 | 0.00 | 93 | 1009.8 |
| 20260506112400 | 23 | 204 | 1.6 | 1.6 | 0.00 | 0.00 | 0.00 | 92 | 1009.6 |
| 20260506111857 | 23 | 204 | 0.0 | 0.0 | 0.00 | 0.00 | 0.00 | 92 | 1009.4 |
| 20260506111355 | 23 | 204 | 0.0 | 1.6 | 0.00 | 0.00 | 0.00 | 93 | 1009.2 |
| 20260506110853 | 23 | 177 | 0.0 | 1.6 | 0.00 | 0.00 | 0.00 | 93 | 1009.3 |
| 20260506110350 | 23 | 177 | 0.0 | 1.6 | 0.00 | 0.00 | 0.00 | 93 | 1009.1 |
| 20260506105847 | 23 | 177 | 0.0 | 0.0 | 0.00 | 0.00 | 0.00 | 93 | 1009.2 |
| 20260506105343 | 23 | 177 | 1.6 | 1.6 | 0.00 | 0.00 | 0.00 | 92 | 1009.1 |
| 20260506104841 | 23 | 177 | 0.0 | 0.0 | 0.00 | 0.00 | 0.00 | 92 | 1009.0 |
| 20260506104338 | 23 | 179 | 0.0 | 0.0 | 0.00 | 0.00 | 0.00 | 92 | 1009.0 |
| 20260506103835 | 23 | 179 | 0.0 | 3.2 | 0.00 | 0.00 | 0.00 | 92 | 1009.1 |
| 20260506103333 | 23 | 188 | 0.0 | 0.0 | 0.00 | 0.00 | 0.00 | 91 | 1009.1 |
| 20260506102830 | 23 | 188 | 0.0 | 0.0 | 0.00 | 0.00 | 0.00 | 91 | 1009.0 |
| 20260506102328 | 23 | 188 | 0.0 | 0.0 | 0.00 | 0.00 | 0.00 | 91 | 1008.9 |
| 20260506101825 | 23 | 188 | 0.0 | 0.0 | 0.00 | 0.00 | 0.00 | 90 | 1009.1 |
| 20260506101321 | 23 | 193 | 0.0 | 1.6 | 0.00 | 0.00 | 0.00 | 90 | 1008.9 |
| 20260506100819 | 24 | 191 | 0.0 | 0.0 | 0.00 | 0.00 | 0.00 | 90 | 1009.4 |
| 20260506100317 | 24 | 188 | 0.0 | 0.0 | 0.00 | 0.00 | 0.00 | 90 | 1009.0 |
| 20260506095816 | 24 | 162 | 0.0 | 0.0 | 0.00 | 0.00 | 0.00 | 89 | 1009.0 |
| 20260506095312 | 24 | 153 | 1.6 | 3.2 | 0.00 | 0.00 | 0.00 | 89 | 1009.0 |
| 20260506094809 | 24 | 187 | 0.0 | 1.6 | 0.00 | 0.00 | 0.00 | 89 | 1009.0 |
| 20260506094308 | 24 | 187 | 0.0 | 3.2 | 0.00 | 0.00 | 0.00 | 89 | 1008.7 |
| 20260506093805 | 24 | 192 | 0.0 | 0.0 | 0.00 | 0.00 | 0.00 | 89 | 1009.0 |
| 20260506093302 | 24 | 191 | 3.2 | 3.2 | 0.00 | 0.00 | 0.00 | 89 | 1008.9 |
| 20260506092800 | 24 | 180 | 0.0 | 0.0 | 0.00 | 0.00 | 0.00 | 89 | 1008.5 |
| 20260506092258 | 24 | 214 | 0.0 | 3.2 | 0.00 | 0.00 | 0.00 | 88 | 1008.6 |
| 20260506091755 | 24 | 207 | 1.6 | 3.2 | 0.00 | 0.00 | 0.00 | 88 | 1008.6 |
| 20260506091252 | 25 | 188 | 0.0 | 1.6 | 0.00 | 0.00 | 0.00 | 88 | 1008.6 |
| 20260506090750 | 25 | 215 | 3.2 | 4.8 | 0.00 | 0.00 | 0.00 | 88 | 1008.4 |
| 20260506090247 | 25 | 190 | 0.0 | 1.6 | 0.00 | 0.00 | 0.00 | 88 | 1008.7 |
| 20260506085743 | 25 | 192 | 0.0 | 3.2 | 0.00 | 0.00 | 0.00 | 88 | 1009.0 |
| 20260506085240 | 25 | 228 | 3.2 | 3.2 | 0.00 | 0.00 | 0.00 | 88 | 1008.7 |
| 20260506084736 | 25 | 201 | 1.6 | 1.6 | 0.00 | 0.00 | 0.00 | 88 | 1008.9 |
| 20260506084233 | 25 | 218 | 0.0 | 1.6 | 0.00 | 0.00 | 0.00 | 88 | 1008.9 |
| 20260506083730 | 25 | 212 | 3.2 | 3.2 | 0.00 | 0.00 | 0.00 | 88 | 1008.7 |
| 20260506083227 | 25 | 195 | 1.6 | 3.2 | 0.00 | 0.00 | 0.00 | 88 | 1008.9 |
| 20260506082725 | 25 | 170 | 0.0 | 1.6 | 0.00 | 0.00 | 0.00 | 88 | 1008.9 |
| 20260506082220 | 25 | 169 | 1.6 | 4.8 | 0.00 | 0.00 | 0.00 | 88 | 1009.2 |
| 20260506081718 | 25 | 199 | 0.0 | 1.6 | 0.00 | 0.00 | 0.00 | 88 | 1009.1 |
| 20260506081215 | 25 | 175 | 0.0 | 1.6 | 0.00 | 0.00 | 0.00 | 88 | 1009.2 |
| 20260506080713 | 25 | 179 | 0.0 | 3.2 | 0.00 | 0.00 | 0.00 | 88 | 1009.3 |
| 20260506080209 | 25 | 167 | 3.2 | 3.2 | 0.00 | 0.00 | 0.00 | 88 | 1009.2 |
| 20260506073154 | 25 | 228 | 1.6 | 3.2 | 0.00 | 0.00 | 0.00 | 87 | 1009.5 |
| 20260506072650 | 25 | 186 | 0.0 | 0.0 | 0.00 | 0.00 | 0.00 | 87 | 1009.6 |
| 20260506072148 | 25 | 153 | 0.0 | 1.6 | 0.00 | 0.00 | 0.00 | 87 | 1009.5 |
| 20260506071645 | 25 | 177 | 0.0 | 3.2 | 0.00 | 0.00 | 0.00 | 87 | 1009.9 |
| 20260506071143 | 25 | 153 | 1.6 | 1.6 | 0.00 | 0.00 | 0.00 | 87 | 1009.9 |
| 20260506070640 | 25 | 155 | 0.0 | 3.2 | 0.00 | 0.00 | 0.00 | 87 | 1009.7 |
| 20260506070137 | 25 | 188 | 0.0 | 1.6 | 0.00 | 0.00 | 0.00 | 87 | 1009.7 |
| 20260506062114 | 25 | 190 | 0.0 | 1.6 | 0.00 | 0.00 | 0.00 | 87 | 1010.0 |
| 20260506061609 | 25 | 183 | 0.0 | 1.6 | 0.00 | 0.00 | 0.00 | 87 | 1009.9 |
| 20260506061108 | 25 | 236 | 3.2 | 6.4 | 0.00 | 0.00 | 0.00 | 86 | 1009.8 |
| 20260506060606 | 25 | 218 | 1.6 | 1.6 | 0.00 | 0.00 | 0.00 | 86 | 1009.8 |
| 20260506051035 | 25 | 187 | 1.6 | 3.2 | 0.00 | 0.00 | 0.00 | 85 | 1009.9 |
| 20260506050532 | 25 | 204 | 0.0 | 1.6 | 0.00 | 0.00 | 0.00 | 84 | 1010.1 |
| 20260506045023 | 25 | 216 | 0.0 | 1.6 | 0.00 | 0.00 | 0.00 | 84 | 1009.8 |
| 20260506044521 | 25 | 224 | 3.2 | 11.3 | 0.00 | 0.00 | 0.00 | 84 | 1009.7 |
| 20260506044018 | 25 | 199 | 3.2 | 3.2 | 0.00 | 0.00 | 0.00 | 83 | 1009.7 |
| 20260506043515 | 25 | 218 | 0.0 | 3.2 | 0.00 | 0.00 | 0.00 | 83 | 1009.8 |
| 20260506043013 | 25 | 215 | 0.0 | 3.2 | 0.00 | 0.00 | 0.00 | 83 | 1010.1 |
| 20260506042512 | 25 | 224 | 3.2 | 3.2 | 0.00 | 0.00 | 0.00 | 83 | 1009.9 |
| 20260506042009 | 25 | 203 | 3.2 | 6.4 | 0.00 | 0.00 | 0.00 | 82 | 1009.9 |
| 20260506041508 | 25 | 203 | 0.0 | 3.2 | 0.00 | 0.00 | 0.00 | 82 | 1009.9 |
| 20260506041004 | 25 | 229 | 0.0 | 1.6 | 0.00 | 0.00 | 0.00 | 82 | 1009.8 |
| 20260506040502 | 25 | 265 | 0.0 | 1.6 | 0.00 | 0.00 | 0.00 | 82 | 1009.6 |
| 20260506035957 | 25 | 172 | 1.6 | 3.2 | 0.00 | 0.00 | 0.00 | 82 | 1009.7 |
| 20260506035455 | 25 | 251 | 3.2 | 3.2 | 0.00 | 0.00 | 0.00 | 82 | 1009.8 |
| 20260506034951 | 25 | 219 | 1.6 | 3.2 | 0.00 | 0.00 | 0.00 | 82 | 1009.6 |
| 20260506034449 | 25 | 179 | 0.0 | 3.2 | 0.00 | 0.00 | 0.00 | 82 | 1009.4 |
| 20260506033946 | 25 | 179 | 0.0 | 3.2 | 0.00 | 0.00 | 0.00 | 82 | 1009.6 |
| 20260506033443 | 25 | 190 | 0.0 | 0.0 | 0.00 | 0.00 | 0.00 | 82 | 1009.7 |
| 20260506032940 | 25 | 222 | 0.0 | 1.6 | 0.00 | 0.00 | 0.00 | 82 | 1009.5 |
| 20260506032437 | 25 | 227 | 1.6 | 3.2 | 0.00 | 0.00 | 0.00 | 81 | 1009.4 |
| 20260506031933 | 25 | 184 | 0.0 | 1.6 | 0.00 | 0.00 | 0.00 | 81 | 1009.4 |
| 20260506031431 | 25 | 114 | 3.2 | 6.4 | 0.00 | 0.00 | 0.00 | 81 | 1009.3 |
| 20260506030929 | 25 | 206 | 0.0 | 3.2 | 0.00 | 0.00 | 0.00 | 81 | 1009.2 |
| 20260506030426 | 25 | 177 | 0.0 | 1.6 | 0.00 | 0.00 | 0.00 | 81 | 1009.1 |
| 20260506025923 | 26 | 252 | 0.0 | 1.6 | 0.00 | 0.00 | 0.00 | 81 | 1009.1 |
| 20260506025420 | 26 | 163 | 0.0 | 9.7 | 0.00 | 0.00 | 0.00 | 81 | 1009.1 |
| 20260506024916 | 26 | 208 | 1.6 | 1.6 | 0.00 | 0.00 | 0.00 | 81 | 1009.1 |
| 20260506024414 | 26 | 205 | 1.6 | 1.6 | 0.00 | 0.00 | 0.00 | 81 | 1008.8 |
| 20260506023909 | 26 | 250 | 0.0 | 1.6 | 0.00 | 0.00 | 0.00 | 80 | 1008.8 |
| 20260506023406 | 26 | 200 | 1.6 | 1.6 | 0.00 | 0.00 | 0.00 | 80 | 1008.6 |
| 20260506022903 | 26 | 245 | 1.6 | 4.8 | 0.00 | 0.00 | 0.00 | 80 | 1008.4 |
| 20260506022401 | 26 | 216 | 3.2 | 9.7 | 0.00 | 0.00 | 0.00 | 79 | 1008.4 |
| 20260506021859 | 26 | 188 | 3.2 | 11.3 | 0.00 | 0.00 | 0.00 | 79 | 1008.4 |
| 20260506021355 | 26 | 211 | 0.0 | 1.6 | 0.00 | 0.00 | 0.00 | 79 | 1008.4 |
| 20260506020852 | 26 | 225 | 0.0 | 0.0 | 0.00 | 0.00 | 0.00 | 78 | 1008.3 |
| 20260506020350 | 26 | 201 | 3.2 | 4.8 | 0.00 | 0.00 | 0.00 | 78 | 1008.4 |
| 20260506015847 | 26 | 198 | 4.8 | 4.8 | 0.00 | 0.00 | 0.00 | 78 | 1008.4 |
| 20260506015345 | 26 | 183 | 1.6 | 6.4 | 0.00 | 0.00 | 0.00 | 77 | 1008.2 |
| 20260506014841 | 26 | 213 | 0.0 | 1.6 | 0.00 | 0.00 | 0.00 | 77 | 1008.2 |
| 20260506014338 | 26 | 201 | 4.8 | 4.8 | 0.00 | 0.00 | 0.00 | 77 | 1008.0 |
| 20260506013835 | 26 | 226 | 3.2 | 3.2 | 0.00 | 0.00 | 0.00 | 77 | 1008.1 |
| 20260506013332 | 26 | 244 | 1.6 | 6.4 | 0.00 | 0.00 | 0.00 | 77 | 1008.0 |
| 20260506012828 | 26 | 194 | 0.0 | 3.2 | 0.00 | 0.00 | 0.00 | 77 | 1007.9 |
| 20260506012326 | 26 | 193 | 0.0 | 6.4 | 0.00 | 0.00 | 0.00 | 77 | 1007.9 |
| 20260506011823 | 26 | 202 | 1.6 | 4.8 | 0.00 | 0.00 | 0.00 | 76 | 1007.6 |
| 20260506011320 | 26 | 230 | 1.6 | 4.8 | 0.00 | 0.00 | 0.00 | 76 | 1007.7 |
| 20260506010817 | 26 | 183 | 0.0 | 3.2 | 0.00 | 0.00 | 0.00 | 76 | 1007.5 |
| 20260506010315 | 26 | 208 | 1.6 | 1.6 | 0.00 | 0.00 | 0.00 | 76 | 1007.5 |
| 20260506005812 | 26 | 180 | 0.0 | 3.2 | 0.00 | 0.00 | 0.00 | 76 | 1007.5 |
| 20260506005308 | 26 | 209 | 1.6 | 3.2 | 0.00 | 0.00 | 0.00 | 75 | 1007.6 |
| 20260506004805 | 26 | 206 | 3.2 | 4.8 | 0.00 | 0.00 | 0.00 | 75 | 1007.7 |
| 20260506004302 | 26 | 211 | 1.6 | 3.2 | 0.00 | 0.00 | 0.00 | 75 | 1007.4 |
| 20260506003758 | 27 | 144 | 1.6 | 4.8 | 0.00 | 0.00 | 0.00 | 75 | 1007.3 |
| 20260506003254 | 27 | 181 | 1.6 | 3.2 | 0.00 | 0.00 | 0.00 | 74 | 1007.3 |
| 20260506002750 | 27 | 55 | 1.6 | 3.2 | 0.00 | 0.00 | 0.00 | 74 | 1007.4 |
| 20260506002247 | 27 | 225 | 1.6 | 4.8 | 0.00 | 0.00 | 0.00 | 74 | 1007.3 |
| 20260506001743 | 27 | 206 | 1.6 | 1.6 | 0.00 | 0.00 | 0.00 | 73 | 1007.2 |
| 20260506001241 | 27 | 190 | 1.6 | 4.8 | 0.00 | 0.00 | 0.00 | 73 | 1007.2 |
| 20260506000737 | 27 | 203 | 0.0 | 9.7 | 0.00 | 0.00 | 0.00 | 72 | 1007.1 |
| 20260506000235 | 27 | 242 | 0.0 | 4.8 | 0.00 | 0.00 | 0.00 | 72 | 1007.2 |
| 20260505235732 | 27 | 186 | 1.6 | 1.6 | 0.00 | 0.00 | 0.00 | 72 | 1007.4 |
| 20260505235230 | 27 | 191 | 0.0 | 3.2 | 0.00 | 0.00 | 0.00 | 72 | 1007.4 |
| 20260505234726 | 27 | 202 | 1.6 | 3.2 | 0.00 | 0.00 | 0.00 | 72 | 1007.1 |
| 20260505234224 | 27 | 168 | 3.2 | 6.4 | 0.00 | 0.00 | 0.00 | 72 | 1007.2 |
| 20260505233720 | 27 | 32 | 4.8 | 6.4 | 0.00 | 0.00 | 0.00 | 71 | 1007.2 |
| 20260505233218 | 27 | 201 | 1.6 | 6.4 | 0.00 | 0.00 | 0.00 | 72 | 1007.2 |
| 20260505232715 | 27 | 185 | 0.0 | 6.4 | 0.00 | 0.00 | 0.00 | 72 | 1007.2 |
| 20260505232212 | 27 | 215 | 1.6 | 3.2 | 0.00 | 0.00 | 0.00 | 71 | 1007.1 |
| 20260505231709 | 27 | 253 | 3.2 | 6.4 | 0.00 | 0.00 | 0.00 | 71 | 1007.1 |
| 20260505231208 | 27 | 246 | 0.0 | 4.8 | 0.00 | 0.00 | 0.00 | 71 | 1007.2 |
| 20260505230706 | 28 | 190 | 1.6 | 9.7 | 0.00 | 0.00 | 0.00 | 71 | 1007.2 |
| 20260505230202 | 28 | 167 | 3.2 | 4.8 | 0.00 | 0.00 | 0.00 | 70 | 1007.3 |
| 20260505225658 | 28 | 232 | 1.6 | 4.8 | 0.00 | 0.00 | 0.00 | 71 | 1007.3 |
| 20260505225155 | 28 | 128 | 0.0 | 9.7 | 0.00 | 0.00 | 0.00 | 71 | 1007.2 |
| 20260505224651 | 28 | 187 | 3.2 | 4.8 | 0.00 | 0.00 | 0.00 | 70 | 1007.3 |
| 20260505224149 | 28 | 177 | 0.0 | 1.6 | 0.00 | 0.00 | 0.00 | 71 | 1007.1 |
| 20260505223646 | 28 | 151 | 6.4 | 11.3 | 0.00 | 0.00 | 0.00 | 70 | 1007.1 |
| 20260505223142 | 28 | 206 | 1.6 | 6.4 | 0.00 | 0.00 | 0.00 | 70 | 1007.3 |
| 20260505222638 | 28 | 206 | 0.0 | 6.4 | 0.00 | 0.00 | 0.00 | 69 | 1007.3 |
| 20260505222135 | 28 | 204 | 1.6 | 4.8 | 0.00 | 0.00 | 0.00 | 70 | 1007.2 |
| 20260505221632 | 28 | 149 | 1.6 | 6.4 | 0.00 | 0.00 | 0.00 | 70 | 1007.4 |
| 20260505221128 | 28 | 40 | 4.8 | 4.8 | 0.00 | 0.00 | 0.00 | 69 | 1007.5 |
| 20260505220626 | 28 | 11 | 1.6 | 1.6 | 0.00 | 0.00 | 0.00 | 70 | 1007.3 |
| 20260505220123 | 28 | 215 | 1.6 | 14.5 | 0.00 | 0.00 | 0.00 | 70 | 1007.2 |
| 20260505215621 | 28 | 147 | 1.6 | 4.8 | 0.00 | 0.00 | 0.00 | 70 | 1007.4 |
| 20260505215119 | 28 | 157 | 4.8 | 6.4 | 0.00 | 0.00 | 0.00 | 69 | 1007.6 |
| 20260505214617 | 28 | 193 | 1.6 | 1.6 | 0.00 | 0.00 | 0.00 | 70 | 1007.6 |
| 20260505214114 | 28 | 176 | 3.2 | 3.2 | 0.00 | 0.00 | 0.00 | 70 | 1007.5 |
| 20260505213611 | 28 | 202 | 1.6 | 9.7 | 0.00 | 0.00 | 0.00 | 70 | 1007.8 |
| 20260505213108 | 28 | 192 | 3.2 | 4.8 | 0.00 | 0.00 | 0.00 | 70 | 1007.9 |
| 20260505212604 | 28 | 41 | 3.2 | 4.8 | 0.00 | 0.00 | 0.00 | 69 | 1007.9 |
| 20260505212102 | 28 | 173 | 3.2 | 9.7 | 0.00 | 0.00 | 0.00 | 69 | 1007.8 |
| 20260505211558 | 28 | 127 | 1.6 | 6.4 | 0.00 | 0.00 | 0.00 | 70 | 1007.8 |
| 20260505211055 | 28 | 200 | 1.6 | 6.4 | 0.00 | 0.00 | 0.00 | 69 | 1007.9 |
| 20260505210551 | 28 | 105 | 1.6 | 6.4 | 0.00 | 0.00 | 0.00 | 68 | 1008.1 |
| 20260505210049 | 28 | 190 | 3.2 | 3.2 | 0.00 | 0.00 | 0.00 | 69 | 1008.1 |
| 20260505205546 | 29 | 141 | 3.2 | 3.2 | 0.00 | 0.00 | 0.00 | 68 | 1008.2 |
| 20260505205044 | 29 | 245 | 3.2 | 4.8 | 0.00 | 0.00 | 0.00 | 67 | 1008.0 |
| 20260505204541 | 29 | 224 | 1.6 | 4.8 | 0.00 | 0.00 | 0.00 | 68 | 1008.2 |
| 20260505204038 | 29 | 206 | 1.6 | 6.4 | 0.00 | 0.00 | 0.00 | 68 | 1008.2 |
| 20260505203535 | 29 | 213 | 3.2 | 3.2 | 0.00 | 0.00 | 0.00 | 66 | 1008.3 |
| 20260505203032 | 30 | 157 | 3.2 | 6.4 | 0.00 | 0.00 | 0.00 | 65 | 1008.3 |
| 20260505202528 | 30 | 263 | 0.0 | 1.6 | 0.00 | 0.00 | 0.00 | 66 | 1008.5 |
| 20260505202024 | 29 | 197 | 6.4 | 6.4 | 0.00 | 0.00 | 0.00 | 66 | 1008.5 |
| 20260505201521 | 29 | 180 | 3.2 | 3.2 | 0.00 | 0.00 | 0.00 | 67 | 1008.6 |
| 20260505201019 | 28 | 242 | 0.0 | 4.8 | 0.00 | 0.00 | 0.00 | 67 | 1008.9 |
| 20260505200517 | 28 | 234 | 3.2 | 4.8 | 0.00 | 0.00 | 0.00 | 68 | 1008.8 |
| 20260505200013 | 28 | 219 | 1.6 | 4.8 | 0.00 | 0.00 | 0.00 | 68 | 1009.0 |
| 20260505195509 | 28 | 239 | 1.6 | 6.4 | 0.00 | 0.00 | 0.00 | 68 | 1009.1 |
| 20260505195007 | 28 | 165 | 1.6 | 3.2 | 0.00 | 0.00 | 0.00 | 69 | 1009.0 |
| 20260505194504 | 28 | 197 | 3.2 | 4.8 | 0.00 | 0.00 | 0.00 | 69 | 1009.1 |
| 20260505194004 | 28 | 206 | 1.6 | 6.4 | 0.00 | 0.00 | 0.00 | 70 | 1009.2 |
| 20260505193501 | 29 | 123 | 1.6 | 4.8 | 0.00 | 0.00 | 0.00 | 68 | 1009.1 |
| 20260505192959 | 29 | 235 | 1.6 | 3.2 | 0.00 | 0.00 | 0.00 | 67 | 1009.0 |
| 20260505192457 | 28 | 206 | 4.8 | 4.8 | 0.00 | 0.00 | 0.00 | 69 | 1009.1 |
| 20260505191954 | 28 | 228 | 1.6 | 3.2 | 0.00 | 0.00 | 0.00 | 67 | 1009.2 |
| 20260505191453 | 28 | 226 | 1.6 | 1.6 | 0.00 | 0.00 | 0.00 | 68 | 1009.3 |
| 20260505190949 | 28 | 221 | 1.6 | 4.8 | 0.00 | 0.00 | 0.00 | 68 | 1009.2 |
| 20260505190444 | 28 | 207 | 6.4 | 6.4 | 0.00 | 0.00 | 0.00 | 68 | 1009.3 |
| 20260505185940 | 28 | 167 | 3.2 | 4.8 | 0.00 | 0.00 | 0.00 | 67 | 1009.4 |
| 20260505185438 | 28 | 160 | 0.0 | 3.2 | 0.00 | 0.00 | 0.00 | 69 | 1009.3 |
| 20260505184934 | 28 | 184 | 1.6 | 1.6 | 0.00 | 0.00 | 0.00 | 70 | 1009.5 |
| 20260505184431 | 28 | 245 | 0.0 | 3.2 | 0.00 | 0.00 | 0.00 | 71 | 1009.3 |
| 20260505183927 | 27 | 147 | 1.6 | 3.2 | 0.00 | 0.00 | 0.00 | 72 | 1009.5 |
| 20260505183425 | 27 | 197 | 3.2 | 4.8 | 0.00 | 0.00 | 0.00 | 71 | 1009.6 |
| 20260505182921 | 28 | 160 | 0.0 | 4.8 | 0.00 | 0.00 | 0.00 | 71 | 1009.5 |
| 20260505182418 | 28 | 236 | 0.0 | 0.0 | 0.00 | 0.00 | 0.00 | 72 | 1009.7 |
| 20260505181914 | 27 | 244 | 3.2 | 6.4 | 0.00 | 0.00 | 0.00 | 72 | 1009.6 |
| 20260505181412 | 27 | 191 | 1.6 | 4.8 | 0.00 | 0.00 | 0.00 | 73 | 1009.7 |
| 20260505180909 | 27 | 135 | 6.4 | 6.4 | 0.00 | 0.00 | 0.00 | 74 | 1009.7 |
| 20260505180405 | 27 | 150 | 0.0 | 3.2 | 0.00 | 0.00 | 0.00 | 75 | 1009.8 |
| 20260505175902 | 27 | 193 | 1.6 | 1.6 | 0.00 | 0.00 | 0.00 | 74 | 1009.9 |
| 20260505175358 | 27 | 208 | 1.6 | 1.6 | 0.00 | 0.00 | 0.00 | 73 | 1009.7 |
| 20260505174854 | 27 | 289 | 1.6 | 3.2 | 0.00 | 0.00 | 0.00 | 72 | 1009.9 |
| 20260505174352 | 27 | 223 | 1.6 | 3.2 | 0.00 | 0.00 | 0.00 | 73 | 1009.9 |
| 20260505173848 | 27 | 213 | 3.2 | 3.2 | 0.00 | 0.00 | 0.00 | 75 | 1009.9 |
| 20260505173345 | 26 | 233 | 3.2 | 3.2 | 0.00 | 0.00 | 0.00 | 76 | 1009.8 |
| 20260505172842 | 26 | 201 | 0.0 | 3.2 | 0.00 | 0.00 | 0.00 | 76 | 1010.0 |
| 20260505172339 | 26 | 201 | 0.0 | 1.6 | 0.00 | 0.00 | 0.00 | 77 | 1010.2 |
| 20260505171839 | 26 | 218 | 1.6 | 4.8 | 0.00 | 0.00 | 0.00 | 75 | 1010.2 |
| 20260505171336 | 26 | 286 | 1.6 | 3.2 | 0.00 | 0.00 | 0.00 | 77 | 1010.1 |
| 20260505170833 | 26 | 209 | 1.6 | 1.6 | 0.00 | 0.00 | 0.00 | 79 | 1010.2 |
| 20260505170329 | 26 | 201 | 0.0 | 3.2 | 0.00 | 0.00 | 0.00 | 81 | 1010.3 |
| 20260505165825 | 25 | 155 | 0.0 | 4.8 | 0.00 | 0.00 | 0.00 | 83 | 1010.2 |
| 20260505165320 | 25 | 151 | 1.6 | 3.2 | 0.00 | 0.00 | 0.00 | 83 | 1010.3 |
| 20260505164816 | 25 | 176 | 1.6 | 3.2 | 0.00 | 0.00 | 0.00 | 81 | 1010.2 |
| 20260505164313 | 26 | 212 | 3.2 | 3.2 | 0.00 | 0.00 | 0.00 | 79 | 1010.3 |
| 20260505163812 | 26 | 147 | 1.6 | 3.2 | 0.00 | 0.00 | 0.00 | 78 | 1010.2 |
| 20260505163310 | 26 | 173 | 1.6 | 9.7 | 0.00 | 0.00 | 0.00 | 78 | 1010.3 |
| 20260505162808 | 26 | 169 | 1.6 | 3.2 | 0.00 | 0.00 | 0.00 | 78 | 1010.2 |
| 20260505162306 | 26 | 184 | 1.6 | 3.2 | 0.00 | 0.00 | 0.00 | 78 | 1010.0 |
| 20260505161801 | 26 | 204 | 1.6 | 1.6 | 0.00 | 0.00 | 0.00 | 79 | 1010.1 |
| 20260505161258 | 26 | 238 | 1.6 | 1.6 | 0.00 | 0.00 | 0.00 | 80 | 1010.2 |
| 20260505160755 | 26 | 218 | 0.0 | 3.2 | 0.00 | 0.00 | 0.00 | 79 | 1010.0 |
| 20260505160253 | 25 | 209 | 1.6 | 4.8 | 0.00 | 0.00 | 0.00 | 79 | 1010.2 |